SB KEPS @ AMSAT $ORB14275.O Orbital Elements 14275.OSCAR
HR AMSAT ORBITAL ELEMENTS FOR OSCAR SATELLITES FROM WA5QGD FORT WORTH,TX October 2, 2014 BID: ORB14275.O TO ALL RADIO AMATEURS BT
Satellite: AO-07 Catalog number: 07530 Epoch time: 14275.79317001 Element set: 86 Inclination: 101.4856 deg RA of node: 254.1303 deg Eccentricity: 0.0012373 Arg of perigee: 084.8694 deg Mean anomaly: 343.8550 deg Mean motion: 12.53607701 rev/day Decay rate: -4.2e-07 rev/day^2 Epoch rev: 82500 Checksum: 274
Satellite: FO-29 Catalog number: 24278 Epoch time: 14275.82798888 Element set: 490 Inclination: 098.5153 deg RA of node: 274.8329 deg Eccentricity: 0.0350631 Arg of perigee: 018.5340 deg Mean anomaly: 098.5752 deg Mean motion: 13.53031011 rev/day Decay rate: 3.8e-07 rev/day^2 Epoch rev: 89522 Checksum: 331
Satellite: SO-33 Catalog number: 25509 Epoch time: 14274.50017363 Element set: 852 Inclination: 031.4320 deg RA of node: 277.9738 deg Eccentricity: 0.0349099 Arg of perigee: 325.8521 deg Mean anomaly: 171.3077 deg Mean motion: 14.29647676 rev/day Decay rate: 1.429e-05 rev/day^2 Epoch rev: 83237 Checksum: 327
Satellite: RS-22 Catalog number: 27939 Epoch time: 14275.78599515 Element set: 917 Inclination: 097.8182 deg RA of node: 084.6492 deg Eccentricity: 0.0013795 Arg of perigee: 122.1657 deg Mean anomaly: 238.0892 deg Mean motion: 14.65369413 rev/day Decay rate: 1.740e-05 rev/day^2 Epoch rev: 58848 Checksum: 364
Satellite: HO-68 Catalog number: 36122 Epoch time: 14275.73504070 Element set: 2 Inclination: 100.2363 deg RA of node: 324.2751 deg Eccentricity: 0.0007683 Arg of perigee: 351.7022 deg Mean anomaly: 008.3946 deg Mean motion: 13.16318520 rev/day Decay rate: -4.3e-07 rev/day^2 Epoch rev: 23058 Checksum: 255
Satellite: AO-73 Catalog number: 39444 Epoch time: 14274.75009214 Element set: 272 Inclination: 097.7609 deg RA of node: 341.7395 deg Eccentricity: 0.0060162 Arg of perigee: 256.8017 deg Mean anomaly: 102.6549 deg Mean motion: 14.78661388 rev/day Decay rate: 2.707e-05 rev/day^2 Epoch rev: 4521 Checksum: 321
Satellite: EO-79 Catalog number: 40025 Epoch time: 14275.66686400 Element set: 307 Inclination: 097.9717 deg RA of node: 170.4823 deg Eccentricity: 0.0012507 Arg of perigee: 313.7104 deg Mean anomaly: 046.3137 deg Mean motion: 14.85540574 rev/day Decay rate: 3.388e-05 rev/day^2 Epoch rev: 1554 Checksum: 304
/EX SB KEPS @ AMSAT $ORB14275.D Orbital Elements 14275.MICROS
HR AMSAT ORBITAL ELEMENTS FOR THE MICROSATS FROM WA5QGD FORT WORTH,TX October 2, 2014 BID: ORB14275.D TO ALL RADIO AMATEURS BT
Satellite: UO-11 Catalog number: 14781 Epoch time: 14275.74581827 Element set: 625 Inclination: 097.8403 deg RA of node: 333.7139 deg Eccentricity: 0.0008968 Arg of perigee: 181.7299 deg Mean anomaly: 178.3885 deg Mean motion: 14.81771731 rev/day Decay rate: 1.095e-05 rev/day^2 Epoch rev: 64389 Checksum: 359
Satellite: AO-16 Catalog number: 20439 Epoch time: 14275.81486594 Element set: 139 Inclination: 098.5141 deg RA of node: 211.1564 deg Eccentricity: 0.0010716 Arg of perigee: 195.2271 deg Mean anomaly: 218.4931 deg Mean motion: 14.32396006 rev/day Decay rate: 2.25e-06 rev/day^2 Epoch rev: 28989 Checksum: 309
Satellite: LO-19 Catalog number: 20442 Epoch time: 14274.79752871 Element set: 74 Inclination: 098.4849 deg RA of node: 210.4912 deg Eccentricity: 0.0011848 Arg of perigee: 187.2913 deg Mean anomaly: 172.8100 deg Mean motion: 14.32595112 rev/day Decay rate: 2.25e-06 rev/day^2 Epoch rev: 28994 Checksum: 314
Satellite: AO-27 Catalog number: 22825 Epoch time: 14274.84351647 Element set: 785 Inclination: 098.6729 deg RA of node: 220.4055 deg Eccentricity: 0.0008013 Arg of perigee: 353.1790 deg Mean anomaly: 059.9191 deg Mean motion: 14.29753141 rev/day Decay rate: 2.04e-06 rev/day^2 Epoch rev: 9602 Checksum: 307
Satellite: IO-26 Catalog number: 22826 Epoch time: 14274.80604098 Element set: 543 Inclination: 098.6671 deg RA of node: 220.5709 deg Eccentricity: 0.0008409 Arg of perigee: 344.8141 deg Mean anomaly: 015.2787 deg Mean motion: 14.30057252 rev/day Decay rate: 2.29e-06 rev/day^2 Epoch rev: 9615 Checksum: 304
Satellite: GO-32 Catalog number: 25397 Epoch time: 14275.44341433 Element set: 465 Inclination: 098.4823 deg RA of node: 229.4967 deg Eccentricity: 0.0001565 Arg of perigee: 048.8351 deg Mean anomaly: 100.3411 deg Mean motion: 14.23465871 rev/day Decay rate: 1.11e-06 rev/day^2 Epoch rev: 84312 Checksum: 292
Satellite: NO-44 Catalog number: 26931 Epoch time: 14275.81363531 Element set: 720 Inclination: 067.0502 deg RA of node: 120.9149 deg Eccentricity: 0.0007376 Arg of perigee: 275.8062 deg Mean anomaly: 084.2198 deg Mean motion: 14.30157554 rev/day Decay rate: 2.09e-06 rev/day^2 Epoch rev: 67899 Checksum: 313
Satellite: SO-50 Catalog number: 27607 Epoch time: 14275.36029588 Element set: 531 Inclination: 064.5560 deg RA of node: 265.6022 deg Eccentricity: 0.0060524 Arg of perigee: 342.1105 deg Mean anomaly: 017.7864 deg Mean motion: 14.73950943 rev/day Decay rate: 1.923e-05 rev/day^2 Epoch rev: 63327 Checksum: 301
Satellite: CO-55 Catalog number: 27844 Epoch time: 14275.25957413 Element set: 38 Inclination: 098.6992 deg RA of node: 282.4958 deg Eccentricity: 0.0008881 Arg of perigee: 331.2357 deg Mean anomaly: 090.5441 deg Mean motion: 14.21569648 rev/day Decay rate: 3.74e-06 rev/day^2 Epoch rev: 58379 Checksum: 356
Satellite: CO-57 Catalog number: 27848 Epoch time: 14275.51206279 Element set: 981 Inclination: 098.7086 deg RA of node: 282.5145 deg Eccentricity: 0.0008914 Arg of perigee: 338.1608 deg Mean anomaly: 148.1372 deg Mean motion: 14.21248806 rev/day Decay rate: 3.39e-06 rev/day^2 Epoch rev: 58374 Checksum: 340
Satellite: AO-51 Catalog number: 28375 Epoch time: 14274.83074411 Element set: 958 Inclination: 098.2609 deg RA of node: 218.1603 deg Eccentricity: 0.0083507 Arg of perigee: 030.9618 deg Mean anomaly: 329.6457 deg Mean motion: 14.41441128 rev/day Decay rate: 5.14e-06 rev/day^2 Epoch rev: 53927 Checksum: 316
Satellite: CP3 Catalog number: 31129 Epoch time: 14275.66458073 Element set: 864 Inclination: 097.9459 deg RA of node: 248.2782 deg Eccentricity: 0.0098946 Arg of perigee: 036.9954 deg Mean anomaly: 016.8270 deg Mean motion: 14.54903261 rev/day Decay rate: 2.299e-05 rev/day^2 Epoch rev: 39566 Checksum: 361
Satellite: CO-65 Catalog number: 32785 Epoch time: 14275.13364222 Element set: 79 Inclination: 097.6882 deg RA of node: 322.8634 deg Eccentricity: 0.0013682 Arg of perigee: 190.9327 deg Mean anomaly: 225.2255 deg Mean motion: 14.85603559 rev/day Decay rate: 2.748e-05 rev/day^2 Epoch rev: 34790 Checksum: 335
Satellite: PRISM Catalog number: 33493 Epoch time: 14275.88156220 Element set: 359 Inclination: 098.2531 deg RA of node: 096.1985 deg Eccentricity: 0.0018861 Arg of perigee: 092.5280 deg Mean anomaly: 267.8131 deg Mean motion: 14.90168927 rev/day Decay rate: 6.969e-05 rev/day^2 Epoch rev: 30821 Checksum: 333
Satellite: SOHLA-1 Catalog number: 33496 Epoch time: 14274.93879016 Element set: 478 Inclination: 098.1829 deg RA of node: 036.2128 deg Eccentricity: 0.0005178 Arg of perigee: 258.8488 deg Mean anomaly: 239.7134 deg Mean motion: 14.70916009 rev/day Decay rate: 8.22e-06 rev/day^2 Epoch rev: 30520 Checksum: 327
Satellite: TISAT-1 Catalog number: 36799 Epoch time: 14275.82944203 Element set: 607 Inclination: 098.0169 deg RA of node: 008.6625 deg Eccentricity: 0.0013642 Arg of perigee: 336.6189 deg Mean anomaly: 023.4407 deg Mean motion: 14.86178109 rev/day Decay rate: 4.383e-05 rev/day^2 Epoch rev: 22870 Checksum: 322
Satellite: STUDSAT Catalog number: 36801 Epoch time: 14275.84638120 Element set: 901 Inclination: 098.0370 deg RA of node: 018.9744 deg Eccentricity: 0.0007620 Arg of perigee: 292.2200 deg Mean anomaly: 179.6627 deg Mean motion: 14.98964428 rev/day Decay rate: 1.9636e-04 rev/day^2 Epoch rev: 22924 Checksum: 315
Satellite: ALMASAT-1 Catalog number: 38078 Epoch time: 14275.43696093 Element set: 171 Inclination: 069.4684 deg RA of node: 159.5351 deg Eccentricity: 0.0575622 Arg of perigee: 249.0373 deg Mean anomaly: 162.4823 deg Mean motion: 14.55363539 rev/day Decay rate: 3.0343e-04 rev/day^2 Epoch rev: 13721 Checksum: 321
Satellite: XATCOBEO Catalog number: 38082 Epoch time: 14243.34478676 Element set: 563 Inclination: 069.3815 deg RA of node: 097.0364 deg Eccentricity: 0.0033293 Arg of perigee: 225.1799 deg Mean anomaly: 135.4582 deg Mean motion: 16.41261006 rev/day Decay rate: 1.3583328e-01 rev/day^2 Epoch rev: 13623 Checksum: 317
Satellite: CUBEBUG-1 Catalog number: 39153 Epoch time: 14275.80938964 Element set: 535 Inclination: 098.0340 deg RA of node: 355.8728 deg Eccentricity: 0.0018446 Arg of perigee: 007.7579 deg Mean anomaly: 352.3912 deg Mean motion: 14.77995990 rev/day Decay rate: 2.402e-05 rev/day^2 Epoch rev: 7745 Checksum: 346
Satellite: ESTCUBE-1 Catalog number: 39161 Epoch time: 14275.76329840 Element set: 535 Inclination: 098.0904 deg RA of node: 355.8463 deg Eccentricity: 0.0011410 Arg of perigee: 058.1270 deg Mean anomaly: 302.1053 deg Mean motion: 14.70218216 rev/day Decay rate: 1.853e-05 rev/day^2 Epoch rev: 7540 Checksum: 274
Satellite: DUCHIFAT-1 Catalog number: 40021 Epoch time: 14275.65690682 Element set: 313 Inclination: 097.9707 deg RA of node: 170.5183 deg Eccentricity: 0.0013093 Arg of perigee: 314.7348 deg Mean anomaly: 045.2848 deg Mean motion: 14.85751617 rev/day Decay rate: 4.616e-05 rev/day^2 Epoch rev: 1553 Checksum: 302
Satellite: NANOSATCBR1 Catalog number: 40024 Epoch time: 14275.66439183 Element set: 304 Inclination: 097.9670 deg RA of node: 170.4864 deg Eccentricity: 0.0011987 Arg of perigee: 313.8412 deg Mean anomaly: 046.1852 deg Mean motion: 14.85616446 rev/day Decay rate: 4.135e-05 rev/day^2 Epoch rev: 1553 Checksum: 299
Satellite: DTUSAT-2 Catalog number: 40030 Epoch time: 14275.69289422 Element set: 300 Inclination: 097.9662 deg RA of node: 170.4380 deg Eccentricity: 0.0010963 Arg of perigee: 306.0747 deg Mean anomaly: 053.9468 deg Mean motion: 14.85164442 rev/day Decay rate: 3.302e-05 rev/day^2 Epoch rev: 1554 Checksum: 287
